Other Surface Observations
Issued by NWS Charleston, SC

Home | Current Version | Previous Version | Text Only | Print | Product List | Glossary On
Versions: 1 2 3 4 5 6 7 8 9 10 11 12 13 14 15 16 17 18 19 20 21 22 23 24 25 26 27 28 29 30 31 32 33 34 35 36 37 38 39 40 41 42 43 44 45 46 47 48 49 50
000
SXUS52 KCHS 210827
OSOCHS

Marine Observations
National Weather Service Charleston SC
400 AM EDT SAT APR 21 2018

...Downtown Charleston and Harbor...

CITY           SKY/WX    TMP DP  RH WIND       PRES   REMARKS
Waterfront Prk NOT AVBL

...Lake Moultrie...

CITY           SKY/WX    TMP DP  RH WIND       PRES   REMARKS
Pinopolis        N/A     52  46  82 CALM      30.22S

...Lake and Supplemental Coastal Observations...

STATION/POSITION TIME  TEMP    WIND        PRES    WAVE   SWELL
                       AIR SEA DIR/SP/G            HT/PER HT/PER/DIR
                 (UTC) (F)     (DEG/KT/KT) (MB)    (FT/S) (FT/S/D)
Fort Pulaski     0800   63 65   90/ 18/ 22 1025.4
Sapelo Island    0800   62      60/ 11     1024.0
Winyah Bay       0745   60      90/ 10     1026.0F
Lake Murray      0750   54     120/  1/  4 1026.1R
ACE Basin NERRS  0745   53        CALM       N/A


...C-MAN and Buoy Observations...

STATION/POSITION TIME  TEMP    WIND        PRES    WAVE   SWELL
                       AIR SEA DIR/SP/G            HT/PER HT/PER/DIR
                 (UTC) (F)     (DEG/KT/KT) (MB)    (FT/S) (FT/S/D)
Buoy 41004       0810   63      70/ 19/ 23 1025.4
Buoy 41008       0750   64 64   70/ 17/ 21 1023.3F   5/ 6   2/ 70/10
Folly Beach CMAN 0800   61      80/ 18/ 20 1026.5R
Pritchards Islan NOT AVBL
Capers NS Buoy   0808   62 63   90/ 16/ 21 1026.2R
Fripp NS Buoy    0808   62 63   80/ 16/ 25 1024.8R
5E St. Marys GA  0800      66                N/A     6/ 6   2/ 90/11


STATION/POSITION TIME  TEMP    WIND        PRES    WAVE   SWELL
                       AIR SEA DIR/SP/G            HT/PER HT/PER/DIR
                 (UTC) (F)     (DEG/KT/KT) (MB)    (FT/S) (FT/S/D)
Frying Pan Buoy  0810   62      80/ 14/ 17 1026.8
Buoy 41025       0810   56 69   20/ 12/ 16 1028.6
Cape Lookout NC  0800           50/ 13/ 15 1028.5R
Buoy 41002       0810   62 71   60/ 12/ 19 1025.1
Buoy 41010       0810   72      60/ 21/ 27 1021.1
St Augustine FL  0800   69 66   90/ 12/ 13 1021.3S

$$




USA.gov is the U.S. government's official web portal to all federal, state and local government web resources and services.